Don Miguel Hidalgo Y Costilla International Airport
MMGL : now visible

Airfield :











YOU CAN JOIN US ON...

 
LOGIN :

Register | Disclaimer

   EN    FR    IT 

 









Legend :    VFR   Marginal VFR   IFR   Intensive IFR   Very Intensive IFR
Visi :
Ceiling :
>= 8 km
>= 3000ft
5 to 8 km
1000 to 3000 ft
1500m to 5 km
500 to 1000 ft
800 to 1500m
200 to 500 ft
< 800m
< 200 ft
Symbols :   Thunderstorms  Fog  Heavy snow  Heavy precipitations  Wind > 20 kt






- Airport Elevation : 5016 ft
- IATA code : GDL


MMGL - Don Miguel Hidalgo Y Costilla International

CURRENT METAR :
  • 121759Z RTD 12004KT 7SM SCT030TCU 29/10 A3018 RMK SLP086 57003 913 8/200 HZY CU

EXPIRED METARs :
  • 121643Z 34005KT 7SM FEW025 27/10 A3021 RMK 8/100 HZY
  • 121542Z 22004KT 8SM FEW100 25/12 A3022 RMK 8/030 CU SSW

TAF TAF MMGL
Valid from the 12 at 18:00 until the 14 at 00:00 UTC


121708Z 1218/1324 24008KT P6SM SCT020 TX29/1221Z TN17/1312Z
FM122300 23010KT P6SM SCT020CB BKN080
PROB40 1300/1303 5SM TSRA BKN015CB
FM130300 24005KT P6SM SCT020
FM131600 08010KT P6SM SCT020
FM132100 06010KT P6SM SCT020CB BKN080
MMFR FIR / North America



MET'MAP, your aeronautical weather chart ! - Copyright ORBIFLY December 2007 - Disclaimer

ORBIFLY MET'MAP TEAM :

Programming & Development : Alexandra Zaïnal
Concept & original design : Baudouin d'Aumeries
Assistance for programming : Marc-Olivier Méhu
Technical & hardware support : Manuel Goepfert

Contact : metmap@orbifly.com




SOURCES & CREDITS :

   NOAA       Earth
Advisory